Simultaneous Nadir Overpasses (SNOs) Predictions

Prediction of SNOs between GOES-16 and NOAA-19 Satellite Orbit:

Table of predicted SNOs for the next 14.0 days since TLE Epoch: 11/28/2020
Index Date Time (GOES-16) GOES-16 Lat,Lon NOAA-19 Lat,Lon Distance(km) Time Diff (sec)
1 11/29/2020 11:15:11 0.00, -75.21 -0.29, -73.87 152.44 80
2 11/30/2020 11:03:28 0.00, -75.22 -0.95, -71.01 479.70 80
3 12/01/2020 23:36:09 0.00, -75.20 -0.85, -78.83 414.47 80
4 12/02/2020 23:24:26 0.00, -75.21 -0.17, -75.97 86.78 80
5 12/03/2020 23:15:24 -0.00, -75.22 0.50, -73.11 241.05 80
6 12/06/2020 11:36:18 0.01, -75.29 0.68, -78.05 316.42 80
7 12/07/2020 11:21:56 0.01, -75.30 0.02, -75.19 12.14 80
8 12/08/2020 11:10:14 0.01, -75.32 -0.70, -72.35 339.96 80
9 12/10/2020 23:31:09 -0.01, -75.33 -0.49, -77.28 223.65 80
10 12/11/2020 23:22:07 -0.02, -75.35 0.18, -74.42 105.15 80
